Theta_e
302 312 311 304 299 304 301 303 299 303 307 313 317 317 320 321 322 323 325 330 331 333 334 336 338 340 341 340 340 341 340 339
301 307 309 305 306 299 300 294 293 300 301 303 311 315 318 319 321 323 325 328 331 333 334 336 338 341 341 342 340 342 342 342
296 294 294 295 295 295 300 299 294 295 299 312 312 319 321 323 324 322 324 327 331 333 335 336 338 340 341 341 340 341 342 343
294 299 300 295 293 292 291 291 297 299 295 317 319 322 324 322 322 323 326 329 332 334 336 337 337 338 341 343 342 343 344 343
291 295 299 300 305 296 290 292 293 291 293 318 318 319 321 321 323 325 326 326 330 333 335 337 338 340 342 344 343 345 345 344
287 290 296 299 304 305 292 289 290 292 303 313 315 316 320 321 323 326 325 327 328 330 334 337 340 342 343 344 345 345 345 345
294 296 304 303 304 308 303 302 293 298 305 313 314 315 317 320 324 327 327 326 328 329 331 334 339 343 344 345 345 345 345 344
296 302 304 301 304 307 308 308 309 309 308 317 316 318 319 321 323 323 327 329 329 330 332 334 336 341 343 344 344 345 344 344
289 297 299 294 300 303 308 309 308 303 308 315 315 317 319 320 320 324 330 328 329 331 333 337 340 342 342 342 343 344 342 341
289 292 286 295 306 308 309 311 310 309 312 316 318 321 321 322 320 322 326 329 331 332 335 338 339 339 339 340 339 339 338 339
288 288 293 300 304 304 306 306 314 314 318 321 320 319 319 321 322 321 322 324 330 334 337 338 337 338 338 337 338 338 337 338
288 286 286 297 306 311 310 298 313 318 319 318 318 306 314 319 320 320 322 323 325 333 333 334 335 337 336 336 336 335 336 336
289 288 293 301 307 310 296 298 314 319 320 318 312 312 317 319 319 320 321 322 323 325 325 328 333 333 332 334 333 336 337 336
290 287 288 307 306 300 304 313 314 316 318 318 318 316 316 316 316 318 318 319 322 321 322 325 327 331 330 325 328 334 336 335
294 293 302 306 306 310 311 313 312 319 320 318 317 315 314 315 315 315 316 316 319 319 319 321 323 325 322 324 327 326 324 321
296 299 303 309 311 312 311 315 317 322 321 319 316 316 313 313 315 314 314 314 316 318 316 317 320 321 321 323 321 319 316 315
297 301 305 307 311 311 320 321 322 322 321 319 316 313 312 312 313 313 313 312 313 313 314 314 317 318 319 321 321 316 314 313
296 303 303 305 309 315 319 319 320 320 319 319 317 314 313 312 312 312 312 311 310 311 311 311 312 313 315 318 321 319 315 313
302 305 305 307 310 315 319 320 320 320 320 317 316 315 313 312 311 311 311 310 310 310 310 310 310 310 310 314 315 315 314 310
Wind_Speed
5 4 11 6 4 5 7 3 3 1 6 6 7 13 9 16 16 17 15 19 19 17 16 14 14 13 13 11 9 10 9 6
5 3 2 8 6 1 2 4 2 3 3 6 11 13 7 13 19 19 18 18 17 17 17 15 12 12 11 11 13 10 10 9
2 4 3 1 1 2 3 4 6 4 7 4 4 10 9 10 13 16 16 18 18 17 16 15 12 12 12 10 10 9 9 8
4 3 4 1 1 4 5 4 2 3 5 7 7 2 3 0 6 8 13 17 17 18 16 14 13 11 12 10 10 10 9 8
7 7 4 5 3 1 2 3 5 5 5 4 5 6 5 2 2 5 10 10 11 10 15 14 14 13 12 12 12 9 9 9
6 5 2 1 4 2 2 3 3 4 2 2 5 6 6 5 5 1 8 10 8 9 12 13 13 13 12 11 10 10 10 10
5 4 1 1 1 4 2 2 4 2 3 3 3 4 4 4 5 3 4 9 11 10 8 10 11 11 10 10 10 11 11 10
2 2 5 1 1 6 4 3 4 3 2 1 3 2 5 7 6 4 4 3 7 7 7 9 12 12 11 10 10 11 11 11
5 3 5 5 2 1 4 1 3 3 3 3 2 3 4 5 6 6 4 6 7 3 3 3 4 6 7 5 5 8 8 7
3 3 2 4 3 3 3 4 2 4 3 5 5 5 4 6 6 6 6 6 7 6 6 7 8 9 8 8 6 5 4 5
3 3 4 2 4 4 4 3 5 7 7 6 6 2 4 8 7 5 6 6 4 3 6 8 9 10 9 8 7 4 4 5
1 3 6 6 2 3 3 3 8 7 9 8 4 1 0 4 6 7 7 5 5 4 5 7 5 5 6 8 8 4 2 3
3 4 7 4 3 3 4 7 5 6 6 7 3 2 2 3 6 5 5 6 5 6 6 5 2 4 2 3 7 10 8 5
3 2 6 2 3 6 7 4 4 3 3 7 9 7 6 6 7 7 8 8 7 6 6 5 6 4 6 3 6 7 5 5
8 7 4 4 4 5 4 3 3 5 8 6 6 8 6 5 7 8 8 7 6 6 7 8 8 8 8 5 4 6 8 7
2 3 4 2 4 3 3 3 7 7 9 7 8 7 9 4 5 6 5 6 5 7 8 8 8 9 6 6 7 8 9 7
4 5 3 3 3 2 2 5 10 7 4 5 9 7 7 2 4 5 5 4 4 5 6 7 6 6 5 6 7 8 7 7
7 8 6 6 5 2 6 7 6 11 7 5 5 7 5 5 3 2 4 4 4 4 6 5 5 5 5 5 5 7 6 5
4 6 4 5 5 1 7 7 7 9 9 9 4 5 5 4 4 4 3 4 3 4 4 5 4 5 4 4 5 5 5 4
Wind_Direction
225 148 141 214 216 202 113 320 111 243 296 302 246 265 198 188 180 189 190 188 188 185 188 186 186 193 185 181 180 181 179 182
288 113 351 149 166 138 17 134 200 244 268 270 225 226 232 192 199 199 188 188 187 185 186 185 189 188 186 186 187 183 180 183
353 13 209 62 169 20 122 126 161 179 249 311 257 216 201 206 225 207 183 186 184 186 187 185 177 186 183 185 176 180 181 178
228 275 265 96 86 151 138 223 239 177 277 346 342 26 102 266 210 184 177 180 184 181 178 174 177 177 188 182 186 194 188 179
353 354 5 58 351 43 98 68 198 151 276 2 344 31 40 74 119 145 158 167 175 169 177 176 178 177 183 185 191 184 179 185
196 229 193 79 351 12 139 132 173 232 153 313 342 6 15 16 359 154 141 142 146 172 185 176 185 181 184 195 185 176 176 185
263 249 140 129 292 3 86 161 187 34 124 234 288 320 341 336 1 20 160 154 161 163 184 171 175 185 189 191 181 176 180 183
281 352 213 187 197 122 48 332 263 136 125 24 320 347 5 7 5 26 12 241 171 161 167 184 190 190 190 189 190 178 182 186
269 11 334 298 309 8 142 198 268 221 196 157 116 68 4 354 15 21 40 65 29 61 130 121 174 170 177 168 151 170 165 151
234 9 209 250 275 298 134 120 102 119 152 159 132 100 57 22 21 19 27 83 111 114 95 90 90 82 91 103 120 127 136 123
170 182 286 298 199 201 230 144 182 163 155 146 145 110 55 36 35 21 9 7 26 72 114 113 115 122 113 102 89 106 153 119
134 176 209 233 155 140 106 275 185 189 163 184 180 134 140 30 41 39 30 14 19 65 46 84 79 67 109 129 134 117 3 129
157 241 294 247 153 130 118 236 132 171 160 177 156 114 103 76 66 49 41 40 37 74 79 46 23 106 147 222 147 137 126 129
104 86 265 16 114 153 226 306 74 63 91 123 123 110 89 56 53 51 52 44 45 64 66 49 44 91 92 60 40 74 102 104
176 217 247 246 240 258 209 146 145 107 120 144 138 116 83 59 63 52 50 52 57 63 55 48 47 56 62 31 60 76 81 67
49 268 247 281 283 250 307 179 124 122 139 152 125 92 87 91 86 80 59 61 53 63 57 50 57 66 52 51 66 81 83 77
257 275 292 251 248 295 80 105 105 102 101 94 111 107 121 130 88 98 91 61 58 87 92 72 63 62 54 72 86 79 80 75
213 200 175 192 209 165 134 123 129 124 104 88 123 137 140 143 137 109 104 98 87 70 72 68 59 57 45 61 90 106 104 97
205 167 174 172 154 168 119 132 124 123 129 141 150 137 139 140 167 145 120 105 117 119 106 96 88 69 45 60 79 79 94 109